Theta_e
323 321 320 321 320 319 319 319 321 320 319 316 314 312 310 308 306 305 304 302 301 300
323 322 321 322 322 320 321 320 321 320 318 315 312 310 308 308 305 304 303 302 301 299
322 323 322 322 321 321 322 321 320 318 316 313 310 308 308 307 304 304 302 300 299 298
323 322 322 322 322 322 322 321 319 317 315 313 310 309 307 306 303 302 295 298 297 297
324 323 322 322 322 323 321 321 319 317 315 312 309 306 303 303 298 296 295 292 296 295
323 322 322 322 322 322 321 320 319 317 314 311 309 305 302 302 297 295 293 293 293 294
323 322 322 322 322 322 322 320 319 317 314 313 309 304 300 300 295 293 291 292 294 294
324 324 323 322 322 322 321 320 319 317 315 313 309 301 299 298 294 291 293 292 292 294
324 323 322 322 322 321 320 319 319 317 315 312 303 294 293 297 293 295 290 288 291 291
323 323 322 321 320 320 319 318 317 317 314 310 305 292 292 292 299 290 291 289 290 289
322 321 321 320 320 320 319 317 315 316 313 308 299 291 291 291 297 291 290 290 289 291
321 320 320 319 318 320 318 316 314 314 310 302 299 290 290 291 291 289 288 290 290 290
321 320 319 318 317 317 316 313 312 309 305 297 295 289 289 291 295 288 288 288 291 289
320 319 319 318 316 315 313 312 308 301 299 296 295 291 289 290 291 288 286 286 286 287
Wind_Speed
19 13 13 16 12 11 11 12 13 13 12 11 10 9 8 6 6 6 5 6 3 3
18 18 16 17 15 12 13 11 14 15 13 12 12 11 10 7 8 8 7 6 5 4
18 18 16 16 17 16 14 14 14 15 14 14 14 14 13 9 9 9 7 5 7 5
17 18 18 16 16 17 16 16 16 17 16 16 14 13 12 11 12 11 7 8 8 7
17 18 18 18 18 17 18 16 17 17 17 16 16 13 12 14 9 12 12 7 9 8
18 19 19 19 18 18 18 18 17 17 18 18 16 16 13 14 14 9 11 9 9 8
19 20 19 19 19 19 19 19 19 18 18 18 16 16 14 14 12 11 9 8 9 9
18 18 18 18 19 18 19 18 19 18 18 17 15 13 15 15 13 11 12 9 7 7
17 17 18 18 18 18 18 17 18 18 18 18 12 16 18 19 13 14 12 10 11 6
16 16 16 16 17 18 18 17 17 18 17 18 17 19 21 19 15 13 12 11 10 8
14 14 15 16 17 17 16 17 15 17 18 16 12 23 24 18 14 11 11 12 11 12
12 13 13 15 16 15 14 14 14 14 16 16 14 24 25 21 13 11 13 11 11 9
10 11 12 12 12 12 12 13 11 12 14 13 12 24 27 22 13 12 10 9 13 11
8 9 9 10 10 11 12 11 12 12 12 12 13 18 25 24 13 11 10 9 9 8
Wind_Direction
206 204 205 200 199 200 198 199 193 194 189 178 172 172 171 169 164 155 156 158 162 154
203 206 206 201 205 202 203 196 192 193 186 181 172 175 172 177 171 166 164 164 162 176
201 204 207 205 201 203 203 199 185 189 186 183 184 178 182 173 175 171 171 161 176 177
202 204 206 205 202 206 202 196 189 190 190 189 188 188 186 178 183 178 163 178 174 182
204 203 206 207 204 205 203 197 195 193 192 192 191 186 196 180 168 173 177 167 176 182
206 205 207 207 206 203 204 200 199 195 195 194 195 188 188 191 183 166 169 176 179 180
205 206 207 206 206 204 203 202 200 201 200 199 194 190 186 190 169 172 170 171 189 184
205 205 210 207 206 205 204 205 201 200 203 197 194 194 181 181 175 169 176 173 193 183
203 206 208 206 206 206 207 207 204 204 202 198 199 180 180 174 173 182 173 163 188 187
204 204 206 207 206 205 206 204 204 206 204 203 203 169 173 176 177 167 173 169 175 197
201 205 204 205 208 207 205 206 204 203 204 203 196 170 173 168 171 166 168 172 181 191
197 204 204 209 212 211 208 206 204 206 203 199 186 169 170 168 164 167 171 182 191 196
192 202 204 208 214 216 213 206 205 208 204 195 172 174 172 175 180 173 172 174 195 201
191 201 202 203 203 202 202 203 202 195 196 186 179 179 180 179 174 169 166 174 181 179